Lapse_Rate
6.5 6.5 6.5 6.5 6.5 6.5 6.5 6.5 6.5 6.5 6.5 6.5 6.5 6.5 6.7 6.9 6.0 5.1 4.7 3.0 2.1 2.0 1.8 1.4 1.7 2.9 3.1 3.6 3.1 2.9 3.3 4.0 4.0 3.5 3.5 3.5 3.2 2.6 3.0 3.5 2.8 1.7 1.6 1.3
6.5 6.5 6.5 6.5 6.5 6.5 6.5 6.5 6.5 6.5 6.5 6.5 6.9 7.1 6.9 7.0 7.1 7.1 6.3 4.3 3.1 2.4 2.7 2.6 3.6 3.4 3.6 3.4 3.5 4.1 4.5 4.7 4.8 4.5 4.3 4.0 3.7 3.8 3.9 3.6 3.7 3.9 3.8 3.7
6.5 6.5 6.5 6.5 6.5 6.5 6.5 6.5 6.5 6.5 6.5 6.5 6.5 6.5 6.8 7.0 6.6 5.4 5.4 4.2 2.3 2.3 2.7 3.7 4.3 3.9 3.4 3.4 3.6 4.8 5.3 5.3 5.2 5.1 4.7 4.2 4.2 4.3 4.0 4.1 4.1 3.8 3.7 4.1
6.5 6.5 6.5 6.5 6.5 6.5 6.5 6.5 6.5 6.5 6.5 6.5 6.7 7.0 7.1 6.9 6.5 5.8 4.4 2.7 1.9 2.0 3.0 4.7 4.8 4.2 3.6 3.9 4.4 5.0 5.7 5.5 5.5 5.4 4.8 4.6 4.7 4.5 4.2 4.4 4.1 3.8 3.7 4.1
6.5 6.5 6.5 6.5 6.5 6.5 6.5 6.5 6.5 6.5 6.5 6.7 7.1 7.1 7.0 5.5 5.1 4.9 4.2 3.3 2.7 1.9 2.7 4.6 4.8 4.1 4.2 4.4 5.6 5.6 5.7 5.5 5.8 5.5 5.0 5.0 5.0 4.6 4.5 4.4 4.1 4.0 4.0 4.1
6.5 6.5 6.5 6.5 6.5 6.8 6.5 6.5 6.5 6.6 6.5 6.5 6.9 6.5 6.5 4.7 3.5 2.7 2.9 2.8 2.2 2.1 3.4 4.6 4.0 4.1 4.3 5.1 5.7 5.4 5.4 5.3 5.7 5.4 5.4 5.0 5.0 4.5 4.6 4.8 4.5 4.3 3.5 3.3
6.5 6.5 6.5 6.5 6.6 6.7 6.5 6.5 6.8 6.9 6.9 6.8 6.5 6.5 5.1 2.9 2.7 2.5 2.5 2.0 2.0 2.3 2.6 4.2 4.3 4.5 5.3 5.2 4.7 5.4 5.6 5.6 5.7 5.8 5.3 4.9 4.4 4.6 4.4 4.2 3.4 2.2 1.9 2.1
6.5 6.5 6.5 6.7 6.6 6.5 6.6 6.7 7.0 7.1 7.0 7.1 6.5 4.6 3.8 2.9 2.5 2.2 1.7 1.8 2.5 2.4 3.0 4.1 5.0 5.4 5.0 5.1 5.7 5.7 5.9 5.8 5.7 5.7 5.5 4.7 4.2 4.4 4.5 3.3 2.2 2.2 2.9 3.7
6.5 6.5 6.6 6.3 6.6 6.4 7.0 6.9 7.2 7.2 6.6 6.3 6.2 5.0 3.9 3.2 3.2 2.9 2.6 2.4 2.9 3.0 3.0 4.2 5.4 5.5 5.0 5.6 5.4 5.7 5.8 5.9 6.0 5.9 5.8 5.2 4.6 4.3 4.5 4.3 4.5 4.3 4.6 4.5
6.5 6.5 6.5 5.7 5.5 5.9 6.6 7.2 7.0 7.1 7.1 6.1 5.8 5.0 3.9 3.5 3.6 3.4 3.2 3.0 3.2 3.4 3.6 4.0 5.0 5.2 5.7 4.7 5.4 5.6 6.0 6.1 6.1 6.1 5.9 5.8 5.9 5.7 5.2 4.6 4.9 5.5 5.0 4.9
6.5 6.5 6.8 6.7 5.8 6.0 6.4 6.7 6.4 6.7 6.6 5.7 5.1 4.1 3.8 3.6 3.7 3.9 3.7 3.4 3.6 3.7 4.0 4.2 4.8 5.1 5.0 5.1 5.3 6.0 6.1 6.1 6.2 6.3 6.2 6.1 6.2 6.2 5.7 5.2 5.7 5.9 5.6 5.0
6.5 6.5 6.6 6.6 6.9 6.5 6.6 6.7 6.8 6.3 6.3 4.5 4.3 3.9 3.3 3.8 3.7 3.7 3.8 3.8 4.1 4.2 4.5 4.4 5.0 5.0 5.1 5.1 5.6 5.7 5.9 6.0 6.0 6.0 6.0 6.4 5.9 5.2 3.9 4.0 3.9 4.7 4.4 4.8
6.6 7.0 6.6 6.3 6.3 6.5 6.5 6.9 6.5 5.4 5.9 5.2 3.8 3.7 3.7 3.4 3.6 3.5 4.1 4.2 4.3 4.2 4.6 4.6 4.9 5.0 5.1 5.1 5.7 5.9 6.1 5.7 5.4 5.6 5.6 5.5 5.3 5.6 5.3 4.6 4.8 5.2 4.8 4.7
5.6 5.6 6.5 6.4 6.6 6.5 6.0 6.0 5.8 5.4 5.0 4.7 3.8 3.6 3.4 3.5 3.5 4.0 3.9 4.4 4.9 4.7 4.7 4.9 5.1 4.9 4.6 5.0 5.4 5.3 5.2 4.5 4.8 4.8 5.0 4.9 5.1 5.4 5.6 5.4 5.3 5.4 5.6 5.9
6.5 6.0 6.3 7.0 6.2 6.2 6.0 5.2 5.3 5.1 4.2 3.6 3.6 3.3 3.4 3.4 3.8 4.2 4.1 4.4 4.9 5.1 4.9 5.0 5.2 4.3 3.8 4.1 4.0 3.7 4.2 4.3 4.5 4.6 4.5 4.7 4.7 4.6 5.0 5.5 5.9 6.0 5.5 4.4
5.3 5.3 5.3 5.3 5.2 5.5 5.3 4.7 5.2 4.6 4.1 3.6 3.2 3.0 3.6 4.2 4.3 4.3 4.2 4.1 4.3 4.4 4.5 3.8 3.7 3.6 3.8 4.5 4.8 4.8 5.1 4.3 4.0 4.5 4.3 4.3 4.3 4.5 4.5 5.1 5.4 5.7 6.1 7.1
6.6 6.9 6.9 5.6 5.7 5.6 5.7 4.8 5.0 4.3 3.8 3.3 3.4 3.4 3.5 3.8 4.0 4.0 3.9 3.5 2.5 2.5 2.7 2.6 2.8 2.1 2.7 3.3 3.9 4.8 4.9 4.5 4.4 4.4 4.3 4.3 4.4 4.6 5.1 5.2 5.7 6.1 6.7 6.3
7.1 7.1 7.3 7.5 6.6 5.5 4.8 4.5 4.3 4.2 3.9 3.3 2.9 2.4 1.6 2.7 3.7 2.7 1.8 0.8 0.2 0.4 1.6 1.3 1.0 0.5 1.4 2.3 3.9 4.4 4.5 4.3 3.8 4.2 3.9 3.6 4.2 4.9 5.2 5.5 6.2 6.6 6.8 5.5
4.8 5.0 5.4 5.6 5.6 5.7 5.8 5.6 5.5 4.9 3.9 3.3 2.1 2.3 1.7 1.6 1.6 0.5 -0.4 0.2 0.6 1.4 0.4 -1.2 0.2 1.0 1.6 1.4 3.0 3.8 4.0 3.9 4.0 4.0 4.3 3.3 4.3 5.4 5.8 6.3 6.9 7.1 6.9 5.9
4.2 3.8 4.1 4.0 4.6 5.4 4.7 3.8 3.6 2.8 1.1 0.9 0.3 0.5 0.3 -0.5 -0.8 -1.3 -0.2 1.0 1.0 1.3 -1.4 -0.1 0.7 1.5 1.1 1.4 2.3 3.8 3.9 4.2 4.3 4.4 4.5 5.5 6.0 6.1 6.5 6.0 7.0 6.7 6.2 5.7
2.4 1.8 1.9 1.7 0.4 0.6 1.2 0.9 0.1 -0.4 -1.2 -0.3 0.9 0.2 -0.7 -2.3 -1.6 -1.0 0.4 2.5 -1.0 -2.8 -0.4 -0.4 1.9 1.9 2.3 1.8 3.2 3.6 3.8 4.1 4.5 5.0 5.5 6.0 5.6 6.4 6.5 6.3 6.0 5.6 5.2 4.7
1.8 0.0 -1.4 -1.5 -0.9 -1.8 -0.7 -0.4 -0.6 -1.3 -0.7 -1.0 -2.0 -2.3 -2.0 -1.9 -1.5 -1.2 -2.2 2.4 -0.8 -1.8 0.5 1.5 2.0 1.2 1.6 1.9 3.5 3.5 3.8 4.6 5.3 5.5 5.6 5.9 6.3 6.0 5.4 5.1 5.0 4.7 4.4 4.1
1.3 0.7 -0.3 -0.7 -0.3 -1.3 -1.7 -1.3 -1.2 -0.3 -0.4 -0.7 -0.9 -0.7 0.4 0.5 1.4 2.9 2.7 -0.3 0.2 -0.3 1.6 1.5 -0.3 -0.4 0.7 3.1 3.3 3.7 4.2 4.5 5.1 5.5 5.6 5.5 5.2 5.1 4.9 4.7 4.4 4.0 3.5 3.3
1.3 0.9 0.2 -0.3 -0.2 1.6 1.1 -0.0 0.0 -0.8 -1.4 -1.2 -1.3 -0.8 0.8 1.2 0.9 0.8 0.6 -0.4 -0.5 0.8 1.2 0.2 0.3 0.4 1.6 2.5 3.2 3.7 4.2 4.6 4.7 4.4 4.0 3.7 4.2 3.7 3.8 3.3 3.2 2.8 1.7 1.3
1.1 0.4 0.3 1.3 2.6 2.0 1.1 0.8 0.8 1.0 1.2 1.2 1.0 1.2 1.8 1.8 3.1 0.4 0.5 -0.0 -0.0 1.2 0.9 -0.6 0.2 0.9 2.6 3.2 3.6 3.9 4.1 4.4 4.2 4.1 3.9 3.6 3.3 3.0 2.7 2.3 1.6 1.6 0.9 1.2
2.7 3.0 2.9 2.9 3.0 2.3 2.0 2.6 2.3 2.0 1.8 1.2 0.8 0.7 0.4 0.4 0.2 0.5 0.5 0.4 0.8 0.7 1.3 1.3 2.0 2.7 3.0 3.2 3.5 3.6 3.6 3.0 3.1 3.0 2.5 2.0 1.4 1.3 0.9 0.5 0.1 0.4 0.4 0.1
3.4 2.7 2.9 2.7 2.7 2.5 2.8 2.8 2.5 2.0 2.2 2.0 0.6 0.3 0.7 0.7 0.6 0.8 0.5 0.8 1.0 0.9 1.2 1.7 2.2 2.6 2.5 2.6 2.5 2.2 2.1 1.6 1.1 1.3 0.8 0.4 0.5 0.3 0.0 -0.1 -0.3 -0.9 -1.6 -1.8
Wind_Speed
6 8 7 13 15 12 16 13 11 25 19 17 11 12 15 15 12 10 10 11 15 16 16 15 14 13 13 13 12 12 11 10 10 9 8 7 7 7 6 7 8 8 7 7
4 7 11 13 10 10 14 18 19 22 27 17 20 18 16 16 15 14 13 14 14 15 17 19 19 16 15 14 13 12 11 10 10 10 9 8 8 7 7 7 7 7 8 8
11 4 5 12 11 17 17 16 16 18 24 16 16 16 14 14 12 12 11 10 13 16 17 17 18 17 15 13 13 14 13 12 11 11 10 9 8 8 8 7 8 8 8 8
7 5 11 4 3 9 12 12 15 19 21 20 18 16 13 10 10 9 6 8 10 12 13 16 17 16 14 13 13 14 13 13 12 11 10 10 9 8 8 7 7 7 7 7
7 9 15 14 11 4 7 7 7 14 19 16 13 7 4 2 2 4 5 7 9 11 13 15 17 15 15 14 15 14 14 14 13 12 11 11 10 9 8 8 7 7 6 7
2 6 8 3 3 3 3 8 8 8 8 6 1 2 0 1 1 5 8 9 11 12 14 15 15 15 15 15 16 15 14 14 13 12 12 11 10 10 8 7 7 6 7 6
9 8 7 9 4 2 6 3 6 6 10 3 3 3 1 3 4 6 7 11 12 13 13 15 16 16 16 16 14 14 14 13 13 12 12 12 11 9 8 7 7 6 6 4
4 7 9 5 1 4 2 2 5 8 6 7 7 3 2 4 7 9 11 12 12 12 12 13 15 15 15 15 14 14 13 13 13 12 10 10 12 10 8 8 7 6 5 4
7 5 2 5 8 7 10 10 10 10 11 7 7 6 6 6 8 9 11 11 11 11 13 12 14 14 15 14 14 14 13 13 12 12 11 11 11 10 8 7 6 5 4 4
2 4 11 9 8 10 8 4 13 14 13 8 9 6 7 9 9 10 11 11 11 13 13 13 13 13 13 14 14 14 13 13 11 11 11 11 8 8 7 6 6 5 5 5
4 11 13 15 14 13 8 11 10 11 11 9 6 8 9 9 10 9 10 10 11 12 12 13 13 12 12 13 14 13 12 11 11 9 11 10 8 7 7 7 7 6 5 6
8 9 7 13 7 5 5 6 8 6 4 4 7 9 10 9 9 11 11 11 11 11 13 13 12 12 12 13 14 13 11 10 9 9 8 8 7 5 4 5 12 9 9 8
16 10 11 13 10 10 9 8 6 3 9 5 6 9 12 8 10 11 11 12 12 13 13 13 13 12 12 13 13 13 11 11 9 9 8 8 7 7 6 4 9 9 12 13
12 7 10 12 10 8 5 9 9 6 6 6 8 9 10 10 12 12 12 12 11 12 12 13 13 12 13 13 13 11 10 11 9 8 8 8 7 7 6 7 7 6 11 11
16 11 15 11 9 11 9 7 6 6 6 8 8 9 11 12 12 11 10 11 11 11 11 12 12 10 11 11 11 11 9 8 8 7 7 7 7 6 6 6 6 5 5 4
7 7 9 10 12 10 7 6 8 6 8 7 10 10 9 10 10 11 10 11 12 10 12 10 9 10 12 12 11 9 8 9 9 7 6 7 6 6 6 6 6 5 5 6
13 16 11 9 10 11 9 6 8 8 9 8 8 9 9 9 10 10 10 8 5 7 9 10 9 9 10 10 11 8 7 7 8 6 6 6 6 7 6 6 6 6 5 5
14 16 12 10 5 4 3 3 5 5 4 8 9 8 8 10 10 9 8 7 6 5 4 5 7 8 8 9 9 7 6 6 6 6 5 6 6 5 5 6 5 5 4 4
2 7 8 9 8 8 8 6 6 6 4 6 9 8 6 5 7 7 8 7 6 7 6 5 9 9 9 8 8 6 6 6 5 4 5 6 5 5 5 4 5 4 4 4
5 4 5 5 6 4 4 5 6 5 4 6 7 7 7 5 7 8 5 6 3 2 8 9 9 8 8 9 8 6 6 7 6 6 5 5 5 5 4 4 4 4 4 4
6 5 5 5 4 5 5 5 7 6 5 5 7 7 7 7 6 8 8 6 2 4 7 8 7 7 6 7 6 6 6 6 6 6 6 5 5 4 4 4 4 4 4 5
3 3 4 4 7 7 5 5 7 7 6 7 8 8 9 8 7 6 3 3 5 7 6 6 6 7 7 8 6 6 6 6 5 5 5 5 5 5 4 4 4 4 4 5
4 4 4 5 6 7 6 6 5 6 7 6 8 8 6 6 5 6 5 4 6 6 6 6 8 9 9 5 5 5 6 6 5 5 5 5 4 4 4 4 4 4 4 4
3 3 4 5 5 6 9 4 7 7 6 6 6 6 9 7 4 4 7 8 10 8 7 7 8 9 7 5 5 6 6 6 6 5 5 6 5 5 5 5 4 4 4 4
3 3 4 4 5 5 8 7 8 9 9 9 8 6 7 3 3 5 6 7 10 9 7 8 10 9 6 6 6 6 6 5 5 6 5 5 5 5 4 4 4 4 4 4
4 3 3 3 4 5 6 6 6 6 7 7 5 4 5 5 7 7 7 8 8 9 7 6 5 6 6 6 7 7 6 6 6 5 6 5 5 4 4 4 4 4 4 6
2 4 4 3 3 5 5 5 7 7 5 6 6 4 6 7 7 8 8 7 7 7 6 6 6 6 6 6 7 7 6 6 6 5 4 4 4 4 4 5 5 5 6 6
Wind_Direction
253 247 242 256 257 238 233 241 230 267 253 276 269 269 269 270 265 250 219 196 199 198 188 177 172 175 173 170 164 159 157 157 159 152 150 133 122 122 122 112 102 97 86 69
281 256 245 253 235 242 246 240 248 263 274 273 280 275 268 266 265 261 244 218 203 194 186 182 178 176 175 169 167 163 161 155 151 151 147 139 130 126 121 110 104 96 86 82
275 244 281 274 218 229 245 249 246 255 263 289 278 272 267 264 261 261 263 214 190 189 186 183 175 170 168 161 153 164 163 156 154 153 149 144 141 137 125 116 107 95 87 82
267 256 259 265 210 223 238 252 242 255 265 264 265 276 274 263 263 260 242 183 177 175 175 174 167 163 150 151 155 159 161 162 160 159 150 150 149 140 132 122 109 98 89 83
240 243 272 289 281 228 203 282 268 267 271 277 282 259 254 323 250 273 181 161 161 159 158 164 162 155 151 154 159 160 163 164 166 160 154 155 151 143 137 126 114 103 94 86
213 255 262 238 172 338 168 281 18 346 311 297 211 257 309 52 91 104 121 136 140 147 154 156 155 151 153 161 166 169 167 167 166 162 161 159 156 149 142 132 124 120 104 84
221 243 263 251 264 201 231 276 344 347 335 302 251 279 13 131 93 110 126 131 135 147 158 160 157 156 163 165 171 171 164 164 164 165 163 160 156 151 150 138 122 111 108 92
215 227 262 186 157 215 267 244 303 313 307 297 277 236 216 131 137 136 134 138 145 147 153 159 161 162 162 169 164 161 161 163 164 165 163 165 160 157 152 138 129 128 128 126
210 217 169 213 228 272 286 292 296 291 270 273 282 222 193 166 157 152 148 147 151 148 149 156 164 166 161 160 159 157 160 164 167 167 169 168 163 163 159 160 156 152 148 146
234 223 247 275 276 262 259 304 277 269 265 266 256 199 184 164 163 157 155 153 149 149 152 157 165 167 160 158 159 160 163 164 164 170 171 172 172 172 170 177 178 180 169 166
247 260 274 272 256 260 254 250 265 265 250 242 215 180 173 169 169 165 157 154 157 158 159 160 162 160 157 161 163 163 164 166 171 176 176 174 181 183 186 192 195 189 187 176
251 235 242 271 266 262 238 285 303 307 256 225 180 167 167 168 167 161 160 159 159 158 156 159 162 158 160 164 166 162 167 172 175 175 181 181 178 169 187 198 193 198 175 171
251 266 251 271 281 282 269 269 307 238 269 209 181 161 164 158 163 157 159 165 167 167 162 160 162 162 164 166 168 172 173 173 173 179 180 178 178 178 170 166 187 185 175 178
255 264 273 256 255 264 237 281 293 264 218 189 168 156 154 152 153 161 169 172 164 160 161 164 166 168 169 170 172 173 172 171 175 180 182 183 186 185 177 173 174 177 185 187
255 236 252 270 276 270 275 279 244 226 173 157 162 157 156 157 165 169 159 158 158 159 161 165 170 168 165 166 165 164 167 175 179 182 187 188 186 184 186 186 185 178 179 206
252 237 250 248 263 263 268 246 235 211 174 161 164 161 168 160 153 152 152 153 155 171 173 170 172 168 170 172 172 173 181 175 179 183 182 188 188 188 191 197 195 195 198 207
265 267 254 248 245 264 261 239 217 187 168 164 164 148 149 143 141 149 162 166 151 158 167 167 174 157 163 167 167 175 178 176 182 182 188 191 191 198 198 195 201 203 208 193
247 257 254 248 235 210 210 162 130 136 156 140 134 140 139 153 161 159 152 128 117 110 153 158 148 149 158 162 166 170 173 171 179 193 183 184 191 193 191 192 194 197 183 168
270 244 249 244 220 167 153 137 117 105 111 131 141 161 155 141 141 136 136 140 143 151 179 163 150 150 156 153 155 154 154 159 165 164 166 155 161 164 167 177 181 186 179 166
31 42 68 90 98 135 133 111 118 114 116 116 114 124 123 125 129 129 130 132 125 86 141 149 146 144 142 141 136 142 150 157 157 156 160 161 160 161 167 175 179 173 163 155
30 43 68 90 87 54 89 119 124 125 123 114 132 132 128 124 113 125 126 132 111 144 134 134 142 139 137 134 136 141 149 155 160 161 161 157 151 158 159 154 148 146 142 139
30 64 71 72 96 80 45 93 106 113 108 102 98 111 117 116 111 89 42 125 139 142 135 134 131 128 132 134 134 140 148 153 150 146 147 155 157 149 140 139 138 137 138 140
90 97 100 86 92 105 82 70 82 101 111 121 129 130 123 131 131 134 124 120 132 137 131 126 127 124 125 123 133 140 145 146 144 143 139 135 131 133 139 144 140 141 141 141
104 94 100 110 117 104 95 77 93 91 93 98 101 115 135 129 93 62 102 124 124 125 120 128 125 121 116 119 125 128 130 129 125 121 113 115 120 124 129 137 135 129 124 130
112 118 128 132 117 114 122 125 106 105 107 106 113 116 116 77 115 136 123 122 125 121 115 110 113 114 115 121 123 122 120 120 121 122 123 123 125 126 128 127 131 139 134 139
173 163 161 162 143 143 142 145 127 131 129 118 101 103 92 92 104 114 116 119 120 116 115 118 116 113 114 115 115 113 112 115 117 111 114 114 118 121 125 124 128 134 136 140
142 144 144 130 146 145 148 148 143 146 141 133 118 114 114 112 110 114 116 118 117 113 111 110 111 109 113 112 107 104 105 103 97 110 107 114 117 121 122 125 127 133 140 146